map of LEH home
LEH - Airport
Location
City:  Le Havre, Haute-Normandie (Upper Normandy), France
Name:Octeville
ICAO:LFOH
IATA:LEH

Details
Type:Airport (Aerodrome, Airfield)
Use:Public/Civil
Latitude:4932'02"N (49.533889)
Longitude:005'17"E (0.088056)
Elevation:313 ft (95 m)
Variation:0.12E (WMM2015v2 magnetic declination)
0.18 annual change
Runways:1
Longest:7546 × 131 ft (2300 × 40 m), paved

Time
Time Zone:UTC+1 (DST+2)
Local Time:

Weather
METAR:LFOH 041400Z AUTO 18012KT 150V210 9999 OVC012 05/03 Q1021 TEMPO 18020G30KT 2000 RADZ OVC007
TAF:LFOH 041100Z 0412/0512 18015KT 9999 OVC012
TEMPO 0412/0416 18020G30KT
TEMPO 0412/0418 2000 RADZ OVC007
BECMG 0420/0422 20005KT OVC004
BECMG 0501/0504 BKN015

Related Locations
Nearby:
Farthest:CHT: 12003 mi / 19317 km
Waitangi [Tuuta], CIT, NZ

Find:

   beyond  
but within

Other Information
Maps:
NOTAMs:
Links:
Sources:

  
  • flag of France
  • flag of Haute-Normandie (Upper Normandy)
  

Sectional Chart

Flight Planning
at skyvector.com

Satellite Image

Google Maps Satellite view

 

Copyright © 2004-2019 Karl L. Swartz. All rights reserved.
The Great Circle Mapper name and logo are trademarks of the Great Circle Mapper.
All other trademarks mentioned herein belong to their respective owners.
Please see credits for attibutions and further copyright information.

  Follow gcmap on Facebook Follow gcmap on Twitter GCmap on LinkedIn

hCard Microformat

Geo Microformat